�N����,����,�~����,�C��,���x,�C��,����,���ϕ���,�ő�u�ԕ���,�ő厞����,���˗�,�I�_���x,�n�����x,�ő啗���N��,DTYPE
"19/11/24","00:10",0.0,10.3,90.5,1017.3,316.4,1.6,2.6,317.9,0.00,8.9,13.3,"00:07:36",1
"19/11/24","00:20",0.0,9.8,90.8,1016.8,312.1,1.7,2.1,328.8,0.00,8.4,13.3,"00:12:00",1
"19/11/24","00:30",0.0,9.7,91.2,1016.6,294.4,1.3,2.0,322.3,0.00,8.4,13.3,"00:28:00",1
"19/11/24","00:40",0.0,9.8,91.4,1016.6,317.7,1.3,2.2,323.0,0.00,8.5,13.3,"00:35:28",1
"19/11/24","00:50",0.0,9.6,91.5,1016.6,307.3,1.6,2.8,315.0,0.00,8.3,13.2,"00:46:00",1
"19/11/24","01:00",0.0,9.5,91.9,1016.8,307.6,1.3,2.4,312.7,0.00,8.3,13.2,"00:50:40",1
"19/11/24","01:10",0.0,9.7,92.2,1016.4,307.2,1.1,2.4,325.7,0.00,8.5,13.1,"01:09:28",1
"19/11/24","01:20",0.0,10.4,92.4,1016.8,300.3,1.7,3.1,320.0,0.00,9.3,13.0,"01:18:00",1
"19/11/24","01:30",0.0,11.7,92.2,1016.4,311.0,2.3,3.9,323.4,0.00,10.5,13.0,"01:24:36",1
"19/11/24","01:40",0.0,11.9,92.0,1016.4,316.6,2.1,3.4,314.5,0.00,10.7,13.0,"01:30:56",1
"19/11/24","01:50",0.0,12.0,92.0,1016.6,319.4,2.3,4.2,333.1,0.00,10.8,13.1,"01:47:10",1
"19/11/24","02:00",0.0,12.5,91.6,1017.1,320.9,3.7,7.2,325.5,0.00,11.2,12.9,"01:55:46",1
"19/11/24","02:10",0.0,12.6,91.2,1017.1,327.6,3.5,5.7,351.0,0.00,11.2,13.1,"02:09:14",1
"19/11/24","02:20",0.0,12.8,90.8,1017.1,327.3,3.4,5.7,332.3,0.00,11.4,13.2,"02:14:06",1
"19/11/24","02:30",0.0,12.5,90.5,1017.8,319.9,2.1,4.9,325.9,0.00,11.0,12.9,"02:20:42",1
"19/11/24","02:40",0.0,12.1,90.3,1017.8,310.4,0.6,1.1,328.2,0.00,10.6,13.2,"02:30:14",1
"19/11/24","02:50",0.0,11.6,90.4,1017.8,296.0,1.6,2.1,324.8,0.00,10.1,13.3,"02:40:54",1
"19/11/24","03:00",0.0,11.6,90.5,1017.8,302.6,1.7,2.7,308.2,0.00,10.1,13.0,"02:51:40",1
"19/11/24","03:10",0.0,11.9,90.5,1017.3,324.2,1.6,2.6,330.7,0.00,10.4,13.2,"03:08:40",1
"19/11/24","03:20",0.0,11.8,90.4,1017.5,296.9,1.5,2.0,323.5,0.00,10.3,13.0,"03:12:06",1
"19/11/24","03:30",0.0,11.7,90.5,1017.5,300.6,1.3,2.0,323.5,0.00,10.2,13.0,"03:22:20",1
"19/11/24","03:40",0.0,11.6,90.6,1017.3,310.7,1.7,2.5,322.6,0.00,10.2,13.2,"03:39:26",1
"19/11/24","03:50",0.0,12.1,90.8,1017.1,318.3,2.1,3.6,327.0,0.00,10.7,13.2,"03:40:18",1
"19/11/24","04:00",0.0,12.3,90.7,1017.1,321.8,1.2,2.0,321.0,0.00,10.9,13.2,"03:50:56",1
"19/11/24","04:10",0.0,12.5,90.7,1017.1,318.9,1.7,3.3,320.6,0.00,11.1,13.1,"04:05:48",1
"19/11/24","04:20",0.0,12.5,90.7,1016.8,267.6,1.1,1.9,256.8,0.00,11.1,13.2,"04:18:24",1
"19/11/24","04:30",0.0,12.3,90.5,1016.8,254.3,1.3,2.2,249.9,0.00,10.8,13.3,"04:27:04",1
"19/11/24","04:40",0.0,11.8,90.5,1017.1,294.1,1.0,1.3,295.0,0.00,10.3,13.1,"04:31:36",1
"19/11/24","04:50",0.0,11.0,90.6,1017.1,300.1,0.8,1.2,285.0,0.00,9.6,13.0,"04:42:36",1
"19/11/24","05:00",0.0,10.4,90.9,1016.6,321.7,1.7,2.2,322.6,0.00,9.0,13.2,"04:53:20",1
"19/11/24","05:10",0.0,10.1,91.0,1016.8,300.0,1.5,1.9,315.0,0.00,8.7,13.2,"05:02:24",1
"19/11/24","05:20",0.0,9.9,91.2,1016.6,306.6,1.7,2.4,316.4,0.00,8.6,13.0,"05:17:04",1
"19/11/24","05:30",0.0,9.7,91.4,1016.6,291.6,1.3,1.7,304.2,0.00,8.4,13.1,"05:23:04",1
"19/11/24","05:40",0.0,9.6,91.6,1016.8,303.4,1.5,1.9,316.3,0.00,8.3,13.0,"05:31:20",1
"19/11/24","05:50",0.0,9.5,91.6,1016.4,312.6,1.2,1.9,315.5,0.00,8.2,12.8,"05:43:20",1
"19/11/24","06:00",0.0,9.0,91.7,1016.1,296.7,1.6,2.0,311.6,0.00,7.8,12.9,"05:51:04",1
"19/11/24","06:10",0.0,8.7,92.0,1016.4,296.7,1.5,1.9,276.5,0.00,7.5,12.9,"06:08:40",1
"19/11/24","06:20",0.0,9.3,92.4,1016.1,310.9,1.8,2.4,326.9,0.00,8.2,12.9,"06:16:32",1
"19/11/24","06:30",0.0,9.0,92.3,1016.6,310.3,2.0,2.8,330.0,0.00,7.9,12.7,"06:20:56",1
"19/11/24","06:40",0.0,8.8,92.7,1016.8,300.1,1.8,2.2,306.0,0.00,7.7,12.6,"06:32:32",1
"19/11/24","06:50",0.0,9.0,92.8,1016.8,302.2,1.3,2.0,318.7,0.00,7.9,12.7,"06:46:56",1
"19/11/24","07:00",0.0,8.8,93.0,1016.6,300.7,1.3,2.6,315.6,0.00,7.8,12.5,"06:54:40",1
"19/11/24","07:10",0.0,9.1,93.3,1016.6,282.1,1.2,1.9,311.1,0.00,8.1,12.4,"07:02:32",1
"19/11/24","07:20",0.0,9.8,93.4,1016.6,303.8,1.6,2.7,318.4,0.00,8.8,12.6,"07:13:12",1
"19/11/24","07:30",0.0,9.7,93.3,1016.8,310.9,1.3,2.1,343.9,0.00,8.7,12.5,"07:21:12",1
"19/11/24","07:40",0.0,9.9,93.6,1016.8,289.7,0.6,1.8,300.4,0.00,9.0,12.3,"07:38:48",1
"19/11/24","07:50",0.0,9.6,93.7,1016.6,331.7,1.6,3.2,330.5,0.00,8.7,12.3,"07:45:04",1
"19/11/24","08:00",0.0,9.9,94.1,1016.6,310.0,1.7,2.5,306.8,0.02,9.0,12.4,"07:50:24",1
"19/11/24","08:10",0.0,10.9,94.2,1016.8,306.6,1.1,1.6,311.0,0.03,10.0,12.5,"08:00:32",1
"19/11/24","08:20",0.0,11.6,94.1,1016.6,313.4,1.0,1.6,315.7,0.03,10.7,12.4,"08:12:32",1
"19/11/24","08:30",0.0,12.2,94.1,1016.4,313.2,1.1,1.8,321.2,0.03,11.3,12.6,"08:24:40",1
"19/11/24","08:40",0.0,12.8,93.9,1016.6,300.1,1.1,1.7,316.5,0.04,11.9,12.5,"08:33:36",1
"19/11/24","08:50",0.0,13.3,93.8,1016.6,276.8,1.2,1.8,248.7,0.07,12.4,12.7,"08:42:32",1
"19/11/24","09:00",0.0,13.9,93.6,1016.6,307.2,1.5,2.9,330.4,0.09,12.9,12.7,"08:57:20",1
"19/11/24","09:10",0.0,14.5,93.6,1017.3,333.1,0.7,2.2,332.6,0.14,13.5,12.8,"09:00:08",1
"19/11/24","09:20",0.0,14.8,92.7,1017.3,298.6,1.2,2.9,338.7,0.15,13.7,13.1,"09:19:12",1
"19/11/24","09:30",0.0,15.1,92.0,1017.5,289.7,1.0,2.5,325.0,0.11,13.9,13.0,"09:29:44",1
"19/11/24","09:40",0.0,14.5,91.4,1017.1,262.2,1.2,2.1,240.6,0.09,13.2,13.2,"09:39:36",1
"19/11/24","09:50",0.0,14.5,90.8,1017.3,243.3,1.6,3.1,237.6,0.16,13.1,13.2,"09:47:12",1
"19/11/24","10:00",0.0,15.0,89.8,1017.1,247.5,1.2,2.5,237.4,0.26,13.4,13.4,"09:58:24",1
"19/11/24","10:10",0.0,15.8,87.8,1016.8,248.2,1.1,1.8,238.8,0.28,13.8,13.6,"10:05:44",1
"19/11/24","10:20",0.0,16.5,84.9,1016.4,239.2,1.0,1.8,235.0,0.34,14.0,13.9,"10:12:32",1
"19/11/24","10:30",0.0,17.4,81.5,1016.4,159.3,0.6,1.4,146.3,0.36,14.2,14.0,"10:22:24",1
"19/11/24","10:40",0.0,17.9,77.6,1016.1,87.2,0.7,1.9,119.7,0.32,14.0,14.2,"10:34:40",1
"19/11/24","10:50",0.0,18.4,74.3,1016.1,255.9,0.5,1.3,320.2,0.30,13.8,14.4,"10:40:40",1
"19/11/24","11:00",0.0,18.8,72.3,1016.1,239.0,0.6,1.9,235.0,0.30,13.8,14.5,"10:52:24",1
"19/11/24","11:10",0.0,18.9,70.6,1015.9,196.2,0.6,1.3,226.2,0.25,13.5,14.6,"11:05:20",1
"19/11/24","11:20",0.0,18.7,69.8,1015.6,112.4,0.7,1.6,37.5,0.19,13.1,14.9,"11:15:04",1
"19/11/24","11:30",0.0,18.9,69.6,1015.2,334.3,0.5,1.3,335.6,0.25,13.3,15.1,"11:22:32",1
"19/11/24","11:40",0.0,19.3,68.3,1014.9,244.0,0.7,1.3,222.7,0.29,13.4,15.2,"11:36:24",1
"19/11/24","11:50",0.0,19.5,68.2,1014.9,220.4,0.6,1.7,232.9,0.28,13.5,15.2,"11:40:48",1
"19/11/24","12:00",0.0,19.5,67.0,1014.5,107.4,0.6,2.0,107.6,0.25,13.3,15.5,"11:57:44",1
"19/11/24","12:10",0.0,19.6,67.5,1014.0,160.7,0.8,2.1,118.1,0.24,13.5,15.5,"12:05:28",1
"19/11/24","12:20",0.0,19.4,68.0,1014.0,136.8,0.6,1.7,108.8,0.22,13.4,15.6,"12:12:56",1
"19/11/24","12:30",0.0,19.3,68.2,1013.3,192.5,1.0,1.9,125.9,0.22,13.3,15.5,"12:29:36",1
"19/11/24","12:40",0.0,19.3,68.4,1013.3,187.1,1.0,2.0,185.4,0.24,13.4,15.9,"12:39:36",1
"19/11/24","12:50",0.0,19.4,68.4,1013.5,211.0,1.1,2.4,213.4,0.25,13.5,15.9,"12:41:20",1
"19/11/24","13:00",0.0,19.7,67.9,1013.0,117.1,0.7,1.9,72.7,0.25,13.7,15.9,"12:51:44",1
"19/11/24","13:10",0.0,19.6,67.9,1012.8,119.5,1.2,2.2,122.2,0.24,13.6,16.1,"13:06:00",1
"19/11/24","13:20",0.0,19.8,68.0,1013.0,115.3,1.1,2.0,144.0,0.23,13.8,16.2,"13:18:40",1
"19/11/24","13:30",0.0,19.6,68.0,1012.6,102.9,1.1,2.5,104.4,0.19,13.6,16.2,"13:22:00",1
"19/11/24","13:40",0.0,19.7,68.5,1012.6,105.0,0.7,1.4,76.7,0.17,13.8,16.2,"13:33:28",1
"19/11/24","13:50",0.0,19.6,68.4,1012.6,133.0,0.6,1.7,117.3,0.15,13.7,16.2,"13:45:28",1
"19/11/24","14:00",0.0,19.5,68.6,1012.3,152.4,0.3,1.3,111.6,0.13,13.6,16.4,"13:57:04",1
"19/11/24","14:10",0.0,19.6,68.7,1012.3,345.4,0.3,1.0,117.6,0.12,13.7,16.6,"14:03:04",1
"19/11/24","14:20",0.0,19.5,68.8,1011.9,164.9,0.7,1.6,136.1,0.12,13.7,16.3,"14:14:16",1
"19/11/24","14:30",0.0,19.4,68.5,1011.9,93.9,1.0,1.9,102.6,0.12,13.5,16.3,"14:25:04",1
"19/11/24","14:40",0.0,19.4,69.0,1011.6,105.6,0.6,1.8,113.2,0.10,13.6,16.2,"14:37:28",1
"19/11/24","14:50",0.0,19.2,69.5,1011.6,100.3,0.7,1.8,98.3,0.09,13.5,16.3,"14:46:56",1
"19/11/24","15:00",0.0,18.9,70.3,1011.4,182.5,0.7,2.1,118.4,0.08,13.4,16.5,"14:50:08",1
"19/11/24","15:10",0.0,18.8,71.1,1011.4,205.9,1.0,1.8,225.0,0.06,13.5,16.4,"15:07:36",1
"19/11/24","15:20",0.0,18.5,71.7,1011.6,208.0,1.1,2.7,208.9,0.04,13.3,16.5,"15:12:08",1
"19/11/24","15:30",0.0,18.4,72.5,1012.1,212.9,1.1,2.0,199.3,0.03,13.4,16.1,"15:20:40",1
"19/11/24","15:40",0.0,18.3,73.1,1011.6,200.4,1.0,2.0,193.6,0.02,13.4,16.4,"15:30:16",1
"19/11/24","15:50",0.0,18.1,73.8,1011.9,183.5,1.0,2.5,223.6,0.01,13.4,16.2,"15:42:40",1
"19/11/24","16:00",0.0,18.0,74.1,1012.1,197.8,0.7,2.2,144.8,0.01,13.4,16.2,"15:51:52",1
"19/11/24","16:10",0.0,18.0,74.6,1011.9,200.8,0.8,1.9,197.4,0.01,13.5,16.2,"16:03:12",1
"19/11/24","16:20",0.0,17.9,75.1,1011.9,219.7,0.7,2.5,231.2,0.00,13.5,16.1,"16:14:16",1
"19/11/24","16:30",0.0,17.7,75.5,1011.6,281.3,0.7,1.6,321.7,0.00,13.4,16.0,"16:28:16",1
"19/11/24","16:40",0.0,17.5,76.4,1012.1,329.5,1.2,2.6,313.1,0.00,13.3,16.2,"16:30:02",1
"19/11/24","16:50",0.0,17.2,77.7,1012.3,331.2,1.7,4.1,330.6,0.00,13.3,15.9,"16:49:44",1
"19/11/24","17:00",0.0,17.0,78.8,1012.3,324.9,1.7,3.5,338.4,0.00,13.3,15.7,"16:52:40",1
"19/11/24","17:10",0.0,16.6,79.4,1012.3,307.8,1.0,2.2,342.1,0.00,13.1,15.8,"17:02:16",1
"19/11/24","17:20",0.0,16.1,79.9,1011.6,302.8,0.5,1.0,338.4,0.00,12.7,15.5,"17:16:56",1
"19/11/24","17:30",0.0,15.5,80.4,1011.4,301.2,0.7,1.1,327.4,0.00,12.2,15.7,"17:20:02",1
"19/11/24","17:40",0.0,15.5,81.9,1011.2,349.4,1.0,2.4,350.5,0.00,12.5,15.7,"17:32:56",1
"19/11/24","17:50",0.0,15.0,82.9,1010.9,279.3,1.1,1.9,310.7,0.00,12.2,15.5,"17:48:48",1
"19/11/24","18:00",0.0,14.6,83.9,1011.2,307.4,1.0,1.7,318.0,0.00,12.0,15.5,"17:56:16",1
"19/11/24","18:10",0.0,14.7,84.7,1011.2,298.6,1.1,1.8,323.9,0.00,12.2,15.2,"18:05:28",1
"19/11/24","18:20",0.0,14.7,85.5,1011.2,332.0,1.3,2.0,317.0,0.00,12.3,15.2,"18:16:16",1
"19/11/24","18:30",0.0,14.1,86.1,1011.4,318.7,1.3,1.9,331.5,0.00,11.9,15.3,"18:21:04",1
"19/11/24","18:40",0.0,13.6,86.7,1011.4,307.0,1.1,1.3,323.2,0.00,11.5,15.2,"18:30:48",1
"19/11/24","18:50",0.0,13.4,87.2,1011.2,301.8,0.8,1.3,320.4,0.00,11.4,15.0,"18:46:16",1
"19/11/24","19:00",0.0,13.3,87.7,1011.2,293.4,1.0,1.4,315.1,0.00,11.3,15.2,"18:55:52",1
"19/11/24","19:10",0.0,13.5,88.1,1010.9,281.5,0.8,1.8,302.6,0.00,11.6,15.0,"19:03:04",1
"19/11/24","19:20",0.0,13.6,88.4,1010.9,272.5,1.1,1.4,270.5,0.00,11.8,15.0,"19:16:08",1
"19/11/24","19:30",0.0,13.6,88.8,1010.7,287.8,1.1,1.8,312.6,0.00,11.8,14.8,"19:20:02",1
"19/11/24","19:40",0.0,13.5,89.1,1010.9,279.1,1.0,1.7,315.6,0.00,11.8,14.7,"19:30:56",1
"19/11/24","19:50",0.0,13.5,89.3,1011.4,284.5,1.0,1.8,308.9,0.00,11.8,14.7,"19:46:24",1
"19/11/24","20:00",0.0,13.3,89.4,1011.4,303.0,1.2,1.9,313.0,0.00,11.6,14.8,"19:59:04",1
"19/11/24","20:10",0.0,12.9,89.8,1011.4,315.8,1.5,2.1,324.2,0.00,11.3,14.3,"20:08:48",1
"19/11/24","20:20",0.0,12.8,90.0,1011.6,291.4,1.2,1.7,284.7,0.00,11.2,14.7,"20:16:00",1
"19/11/24","20:30",0.0,12.8,90.2,1011.9,276.5,1.2,1.7,264.5,0.00,11.3,14.3,"20:21:12",1
"19/11/24","20:40",0.0,12.8,90.5,1011.9,278.5,1.3,1.9,270.4,0.00,11.3,14.2,"20:36:20",1
"19/11/24","20:50",0.0,12.9,90.7,1012.1,298.2,1.5,2.6,325.5,0.00,11.5,14.4,"20:46:12",1
"19/11/24","21:00",0.0,12.9,90.7,1012.6,306.6,1.1,1.8,294.8,0.00,11.5,14.5,"20:51:30",1
"19/11/24","21:10",0.0,12.4,90.8,1012.6,291.4,0.8,1.6,319.4,0.00,11.0,14.3,"21:03:52",1
"19/11/24","21:20",0.0,11.9,91.1,1012.6,305.0,1.1,1.7,309.2,0.00,10.5,14.2,"21:13:06",1
"19/11/24","21:30",0.0,11.9,91.4,1012.3,300.5,1.6,2.1,318.4,0.00,10.6,14.2,"21:22:14",1
"19/11/24","21:40",0.0,12.3,91.7,1012.8,306.1,2.0,3.4,334.7,0.00,11.0,14.2,"21:38:08",1
"19/11/24","21:50",0.0,12.6,91.8,1012.8,310.4,1.8,3.3,340.4,0.00,11.3,13.9,"21:46:48",1
"19/11/24","22:00",0.0,12.5,91.7,1012.8,293.2,1.2,1.9,312.1,0.00,11.2,14.0,"21:51:42",1
"19/11/24","22:10",0.0,12.5,92.0,1013.0,321.0,1.6,2.8,323.4,0.00,11.3,13.8,"22:03:28",1
"19/11/24","22:20",0.0,12.1,91.9,1012.8,320.6,1.0,2.1,320.5,0.00,10.9,13.9,"22:16:46",1
"19/11/24","22:30",0.0,11.6,92.2,1012.8,287.1,1.1,2.0,320.1,0.00,10.4,13.8,"22:29:34",1
"19/11/24","22:40",0.0,11.6,92.4,1013.0,302.5,1.6,2.1,309.9,0.00,10.5,13.9,"22:34:12",1
"19/11/24","22:50",0.0,11.2,92.4,1012.6,306.2,1.3,2.0,321.1,0.00,10.1,13.8,"22:49:22",1
"19/11/24","23:00",0.0,10.9,92.6,1013.0,307.1,1.2,1.6,307.1,0.00,9.8,13.5,"22:50:32",1
"19/11/24","23:10",0.0,10.7,92.8,1013.3,308.5,1.2,1.8,320.5,0.00,9.6,13.6,"23:07:18",1
"19/11/24","23:20",0.0,11.0,93.3,1013.0,304.0,1.5,2.7,323.7,0.00,10.0,13.6,"23:19:40",1
"19/11/24","23:30",0.0,11.9,93.1,1013.5,326.5,2.2,3.5,324.6,0.00,10.9,13.6,"23:29:00",1
"19/11/24","23:40",0.0,12.1,93.1,1013.5,324.8,2.1,3.4,326.7,0.00,11.1,13.5,"23:31:52",1
"19/11/24","23:50",0.0,11.9,93.0,1013.5,25.8,0.7,2.6,336.7,0.00,10.8,13.6,"23:40:18",1
"19/11/24","24:00",0.0,11.7,93.1,1013.0,285.5,1.0,2.1,318.2,0.00,10.7,13.5,"23:52:26",1
